Location: Vibo Valentia
(38.6670°N, 16.1000°E)
Time: 01:22:20
(UTC+02:00)

STARLINK-1379 - Pass Details

Date: 30 May 2020
Orbit: 549 x 551 km, 53.0° (Epoch: 10 July)

Event Time Altitude Azimuth Distance (km) Brightness Sun altitude
Exits shadow 02:39:28 22° 307° (NW) 1,212 5.4 -24.6°
Maximum altitude 02:40:32 25° 332° (NNW) 1,126 5.5 -24.5°
Drops below altitude 10° 02:43:58 10° 29° (NNE) 1,811 7.3 -24.2°
Sets 02:46:31 0° 43° (NE) 2,704 8.4 -23.9°
